PSLV R/B (43620 NORAD) Tracking and Keplerian Element Data

This shows tracking and keplerian element data for the satellite.

Feedback or suggestion? Click here.




ElementValue
Catalog43620
NamePSLV R/B
Epoch Orbit415
Epoch Day287.58914442
Epoch Year2018
RAAN176.6657
Inclination97.7067
Eccentricity0.0032053
Argument of Perigee136.6713
Mean Anonmoly223.7043
Mean Motion14.9075567
Decay Rate8.1E-07
L11 43620U 18071C 18287.58914442 .00000081 00000-0 13800-4 0 9990
L22 43620 97.7067 176.6657 0032053 136.6713 223.7043 14.90755670 4156



Live tracking and technical data element details for PSLV R/B (NORAD 43620). PSLV R/B can be tracked NOW for your location showing map with azimuth and elevation plus other details from your city location.







IsCatalogInMostPopularTable: catalog: 43620, numindb: 315
Update: records affected: 1



GetName: 43620 PSLV R/B

Hit Count: updated at: Sun, 28 May 2023 05:44:28 GMT